Regional Weather Roundup
Issued by NWS

Current Version | Previous Version | Text Only | Print | Product List | Glossary On
Versions: 1 2 3 4 5 6 7 8 9 10 11 12 13 14 15 16 17 18 19 20 21 22 23 24 25 26 27 28 29 30 31 32 33 34 35 36 37 38 39 40 41 42 43 44 45 46 47 48 49 50
000
ASUS44 KJAN 050410
RWRMS

MISSISSIPPI HOURLY WEATHER ROUNDUP
NATIONAL WEATHER SERVICE JACKSON MS
1000 PM CST THU MAR 04 2021

NOTE: "FAIR: INDICATES FEW OR NO CLOUDS BELOW 12,000 FEET WITH NO
SIGNIFICANT WEATHER AND/OR OBSTRUCTIONS TO VISIBILITY.

MSZ001>002-007>008-010>013-018>021-025>028-034>036-050500-
NORTHWEST MISSISSIPPI

CITY           SKY/WX    TMP DP  RH WIND       PRES   REMARKS
BATESVILLE     FAIR      45  43  93 CALM      30.08F
CLARKSDALE       N/A     52  50  93 CALM      30.09R
CLEVELAND      FAIR      52  46  82 CALM      30.09R
GREENWOOD      CLEAR     47  43  86 NE3       30.08S
GREENVILLE     PTCLDY    51  44  77 CALM      30.08S
OLIVE BRANCH   CLEAR     54  37  54 CALM      30.09S
OXFORD         CLEAR     45  37  76 CALM      30.10F
TUNICA         CLEAR     50  43  76 CALM      30.10R
WINONA         FAIR      46  42  87 CALM      30.08F
$$

MSZ003>006-009-014>017-022>024-029>033-037>039-050500-
NORTHEAST MISSISSIPPI

CITY           SKY/WX    TMP DP  RH WIND       PRES   REMARKS
ABERDEEN       FAIR      46  45  93 CALM      30.10S
COLUMBUS AFB   CLEAR     45  42  87 CALM      30.07S
CORINTH        CLEAR     48  39  71 CALM      30.10S
GOLDN TRIANGLE CLEAR     50  40  68 W3        30.09S
STARKVILLE     FAIR      45  39  81 CALM      30.10S
TUPELO         CLEAR     51  41  68 N3        30.09S
$$

MSZ040-058-050500-
CENTRAL MISSISSIPPI

CITY           SKY/WX    TMP DP  RH WIND       PRES   REMARKS
JACKSON INTL   CLEAR     48  41  76 CALM      30.08S
JACKSON HAWKNS CLEAR     50  41  71 CALM      30.08S
MADISON        FAIR      46  43  87 CALM      30.08S
MERIDIAN KEY   CLEAR     45  39  79 CALM      30.09S
MERIDIAN NAS   CLEAR     46  38  73 CALM      30.09S
PRESTON        CLEAR     48  39  71 CALM      30.05F
RAYMOND        FAIR      45  45 100 CALM      30.08R
VICKSBURG VKS  CLEAR     48  45  87 CALM      30.08R
$$

MSZ059>079-050500-
SOUTH MISSISSIPPI

CITY           SKY/WX    TMP DP  RH WIND       PRES   REMARKS
BROOKHAVEN     FAIR      46  43  87 CALM      30.09S
HATTIESBURG    CLEAR     47  42  83 CALM      30.09R
LAUREL         CLEAR     47  43  85 CALM      30.08S
MCCOMB         CLEAR     48  40  73 CALM      30.08S
NATCHEZ        CLEAR     48  42  80 CALM      30.08R
PINE BELT      CLEAR     45  42  89 CALM      30.09R
$$

MSZ080>082-050500-
COASTAL MISSISSIPPI

CITY           SKY/WX    TMP DP  RH WIND       PRES   REMARKS
BILOXI         CLEAR     52  49  91 CALM      30.07R
PASCAGOULA     CLEAR     46  45  96 CALM      30.08S
GULFPORT       CLEAR     47  43  86 NW3       30.08R
$$

LAZ007>009-015>016-023>026-050500-
NORTHEAST LOUISIANA

CITY           SKY/WX    TMP DP  RH WIND       PRES   REMARKS
BASTROP        FAIR      48  41  76 CALM      30.08R
TALLULAH/VBURG CLEAR     47  43  86 CALM      30.09R
VIDALIA        FAIR      53  47  79 CALM      30.07R
$$



USA.gov is the U.S. government's official web portal to all federal, state and local government web resources and services.